Temperature
12 12 12 12 12 12 12 12 11 11 11 11 11 11 10 10 10 10 9 9 9 8 8 8 7 7 6 6 6 6 5 4 4 4 4 4 4 4 4 3 3 3 3
12 12 12 11 11 11 11 11 11 10 10 10 10 10 10 10 9 9 9 8 8 7 7 7 6 6 5 5 5 5 4 4 4 4 3 3 3 3 3 3 3 3 2
11 11 11 11 10 10 10 10 10 10 10 9 9 9 9 9 9 8 8 8 7 7 6 6 5 5 4 4 4 4 4 3 3 3 3 3 3 3 3 2 2 2 2
10 10 10 10 10 10 9 9 9 9 9 9 9 8 8 8 8 7 7 7 6 6 5 5 4 4 4 3 3 3 3 3 3 3 3 2 2 2 2 2 2 2 2
9 9 9 9 9 9 8 8 8 8 8 8 8 8 7 7 7 7 6 6 5 5 4 4 3 3 3 3 3 2 2 2 2 2 2 2 2 2 2 2 2 1 1
9 9 8 8 8 8 8 8 8 8 7 7 7 7 7 6 6 6 5 5 4 4 3 3 2 2 2 2 2 2 2 2 2 2 2 1 1 1 1 1 1 1 1
8 8 8 7 7 7 7 7 7 7 7 7 6 6 6 6 5 5 4 4 4 3 3 2 2 2 1 1 1 1 1 1 1 1 1 1 1 1 1 1 1 1 0
7 7 7 7 7 7 7 7 6 6 6 6 6 5 5 5 4 4 4 3 3 2 2 2 1 1 1 1 0 1 1 1 1 1 1 1 0 0 0 0 0 0 -0
7 7 7 6 6 6 6 6 6 6 5 5 5 5 4 4 4 3 3 3 2 2 1 1 1 0 0 0 -0 -0 0 0 0 0 0 0 0 0 0 0 -0 -0 -0
6 6 6 6 6 6 6 5 5 5 5 4 4 4 4 3 3 3 2 2 1 1 1 0 0 -0 -0 -1 -1 -1 -1 -0 -0 -0 -0 -0 -0 -0 -0 -1 -1 -1 -1
5 5 5 5 5 5 5 5 5 4 4 4 4 3 3 3 3 2 2 1 1 1 0 -0 -0 -1 -1 -1 -1 -1 -1 -1 -1 -1 -1 -1 -1 -1 -1 -1 -1 -1 -1
5 5 4 5 4 4 4 4 4 4 4 3 3 3 3 2 2 2 1 1 0 0 -0 -1 -1 -1 -1 -2 -2 -2 -2 -2 -2 -2 -2 -2 -2 -2 -2 -2 -2 -2 -2
4 4 4 4 4 4 4 4 3 3 3 3 3 3 2 2 1 1 1 0 -0 -0 -1 -1 -1 -2 -2 -2 -2 -2 -2 -2 -2 -2 -2 -2 -2 -2 -2 -2 -2 -2 -2
3 3 3 3 3 3 3 3 3 3 3 3 2 2 2 2 1 1 0 -0 -0 -1 -1 -1 -2 -2 -2 -2 -3 -3 -3 -3 -3 -3 -3 -3 -3 -3 -3 -3 -3 -3 -3
3 3 3 3 2 2 2 3 3 2 2 2 2 2 1 1 1 0 -0 -0 -1 -1 -1 -2 -2 -2 -2 -2 -3 -3 -3 -3 -3 -3 -3 -3 -3 -3 -3 -3 -3 -3 -3
2 2 2 2 2 2 2 2 2 1 1 1 1 1 1 0 0 -0 -0 -1 -1 -2 -2 -2 -2 -2 -2 -2 -3 -3 -3 -3 -3 -3 -3 -3 -3 -3 -3 -3 -3 -3 -3
2 2 2 1 1 1 1 1 1 1 1 1 1 0 0 -0 -0 -1 -1 -1 -2 -2 -2 -2 -2 -2 -2 -2 -3 -3 -3 -3 -3 -3 -3 -3 -3 -4 -4 -4 -4 -3 -3
1 1 1 1 1 1 1 0 0 0 0 0 0 -0 -0 -1 -1 -1 -1 -2 -2 -2 -2 -2 -2 -2 -2 -3 -3 -3 -3 -3 -3 -3 -3 -3 -3 -4 -4 -4 -4 -4 -4
0 0 0 0 0 0 0 0 -0 -0 -0 -0 -0 -1 -1 -1 -1 -2 -2 -2 -2 -2 -2 -2 -2 -2 -3 -3 -3 -3 -3 -3 -3 -3 -3 -3 -3 -4 -4 -4 -4 -4 -4
-0 -0 -0 -0 -0 -0 -1 -1 -1 -1 -1 -1 -1 -1 -1 -1 -2 -2 -2 -2 -2 -2 -2 -3 -3 -3 -3 -3 -3 -3 -3 -3 -3 -3 -3 -3 -3 -4 -4 -4 -4 -4 -4
-1 -1 -1 -1 -1 -1 -1 -1 -1 -1 -1 -1 -1 -2 -2 -2 -2 -2 -2 -2 -2 -2 -3 -3 -3 -3 -3 -3 -3 -3 -3 -3 -3 -3 -4 -4 -4 -4 -4 -4 -4 -5 -5
-1 -1 -1 -1 -2 -2 -2 -2 -2 -2 -2 -2 -2 -2 -2 -2 -2 -2 -3 -3 -3 -3 -3 -3 -3 -3 -3 -4 -4 -4 -4 -4 -4 -4 -4 -4 -4 -4 -5 -5 -5 -5 -5
-2 -2 -2 -2 -2 -2 -2 -2 -2 -3 -3 -3 -3 -3 -3 -3 -3 -3 -3 -3 -3 -4 -4 -4 -4 -4 -4 -4 -4 -4 -4 -4 -4 -4 -4 -4 -5 -5 -5 -5 -5 -5 -5
-2 -2 -3 -3 -3 -3 -3 -3 -3 -3 -3 -3 -3 -4 -4 -4 -4 -4 -4 -4 -4 -4 -4 -4 -4 -4 -4 -4 -4 -4 -4 -4 -5 -5 -5 -5 -5 -5 -5 -5 -6 -6 -6
-3 -3 -3 -3 -3 -3 -3 -3 -4 -4 -4 -4 -4 -4 -4 -4 -4 -4 -4 -4 -4 -4 -4 -4 -4 -4 -5 -5 -5 -5 -5 -5 -5 -5 -5 -5 -5 -6 -6 -6 -6 -6 -6
-3 -3 -3 -4 -4 -4 -4 -4 -4 -4 -4 -4 -5 -5 -5 -5 -5 -5 -5 -5 -5 -5 -5 -5 -5 -5 -5 -5 -5 -5 -5 -5 -6 -6 -6 -6 -6 -6 -6 -7 -7 -7 -7
Wind_Speed
2 2 3 3 4 5 5 6 6 6 7 7 7 7 6 5 5 5 4 4 4 3 2 3 2 1 1 0 0 1 1 2 3 1 1 2 2 3 4 5 7 8 8
2 3 3 3 4 5 5 6 7 7 6 6 7 7 6 5 5 5 5 4 4 3 3 3 2 2 1 0 0 1 1 1 2 3 2 2 2 2 3 3 5 7 8
2 3 3 4 4 5 5 6 6 7 7 6 6 6 6 6 5 5 5 4 4 3 3 3 3 3 2 1 1 1 1 0 1 2 2 2 2 2 3 3 3 5 6
3 4 5 5 5 5 6 6 6 7 7 7 6 6 6 5 5 5 5 5 4 3 3 2 2 2 2 2 1 1 1 1 1 2 3 2 2 2 2 2 2 3 3
3 5 5 5 5 5 6 6 6 6 7 7 6 6 5 5 4 5 5 5 5 4 3 2 2 2 3 3 2 2 2 2 2 2 2 2 2 2 2 2 2 2 2
3 4 4 6 6 6 6 6 6 6 6 6 6 6 5 4 7 8 6 5 5 4 3 2 1 1 2 2 2 2 3 3 3 3 3 3 3 3 3 3 3 2 1
3 4 5 6 6 6 7 7 7 6 6 6 6 6 5 5 7 8 8 6 5 4 4 3 2 1 2 2 3 3 2 1 3 4 4 4 4 5 5 4 3 2 2
4 4 5 6 6 6 7 7 6 5 6 5 6 6 5 5 7 7 8 6 4 4 4 4 3 2 2 3 3 3 3 3 2 1 3 3 3 4 5 5 5 4 3
4 5 6 7 7 7 7 7 5 5 5 5 5 6 6 5 7 7 7 5 4 4 3 4 4 4 5 5 4 3 2 2 3 4 4 4 5 7 8 6 5 3 2
4 5 5 6 8 8 8 6 4 5 5 6 5 5 6 5 7 8 8 4 4 3 3 3 6 6 7 7 5 4 3 1 1 3 4 5 5 5 7 5 5 4 2
3 3 4 6 6 7 6 5 6 6 6 5 5 4 5 6 7 9 9 5 5 5 4 3 4 8 8 8 7 5 6 4 3 3 3 3 3 3 3 4 4 4 3
2 3 4 5 5 5 7 6 6 7 7 6 5 4 4 5 7 8 11 9 8 6 5 4 5 8 9 9 6 7 8 6 4 3 3 2 2 1 1 3 4 4 3
1 2 3 4 4 5 7 7 6 6 6 5 5 5 4 4 5 10 11 11 11 6 5 8 9 9 8 6 8 9 7 5 4 3 3 3 2 3 3 3 3 3 3
1 1 2 3 4 4 5 6 6 7 6 6 6 6 4 4 5 5 5 6 8 6 5 7 9 9 7 7 6 5 4 5 5 4 4 3 3 3 3 3 2 2 1
0 1 2 2 3 3 4 5 6 6 7 7 6 6 6 6 8 11 7 5 5 5 5 3 3 3 4 4 3 3 4 4 5 4 4 4 4 4 3 3 3 3 3
0 0 1 2 2 3 3 2 4 6 8 9 9 8 7 8 8 10 12 11 11 11 7 4 5 5 6 6 6 5 5 5 5 5 5 5 5 5 4 4 3 4 4
1 1 1 1 2 3 3 3 3 3 6 7 9 10 9 9 9 10 11 11 12 12 7 5 6 7 6 6 6 6 6 6 5 6 6 6 5 5 5 5 5 5 5
1 0 0 1 2 2 3 3 3 3 3 3 5 9 9 9 9 9 10 9 7 8 5 6 6 6 6 7 7 7 6 6 6 6 6 6 6 6 6 6 6 7 6
1 1 0 0 1 1 2 2 2 3 3 2 2 3 7 7 8 8 8 5 5 6 6 6 6 6 6 6 7 7 7 7 7 7 7 7 7 7 7 7 7 10 8
2 1 1 0 1 1 1 2 2 2 2 2 3 3 2 3 3 4 5 4 5 6 6 6 6 6 6 6 6 6 7 7 7 8 7 7 7 7 8 9 8 7 8
2 1 1 1 1 1 1 2 2 2 3 3 3 4 4 3 4 4 4 4 5 6 6 6 6 6 6 6 6 7 8 7 7 7 7 7 8 8 8 8 8 8 7
2 2 1 1 1 1 2 2 2 2 2 3 2 3 5 3 3 3 4 4 4 4 4 4 5 5 5 6 6 7 7 8 7 8 8 7 8 8 8 8 8 8 8
2 2 2 1 1 2 1 1 1 2 2 2 2 2 2 2 3 3 4 3 3 3 3 3 4 4 4 6 6 6 7 8 7 8 8 7 8 8 8 9 10 9 9
2 2 2 2 2 1 1 1 1 2 2 2 2 2 2 2 3 3 3 3 3 3 3 4 4 5 6 5 7 8 9 9 9 9 9 8 8 8 8 8 9 10 10
2 2 2 2 2 2 2 2 2 2 2 2 2 2 2 2 3 3 2 2 3 3 4 4 4 5 7 8 8 9 11 13 12 10 9 8 8 9 8 8 9 9 10
2 2 2 2 2 2 2 2 2 2 2 2 2 2 2 2 3 3 3 3 3 3 4 4 5 6 7 8 10 11 12 13 14 14 10 7 8 8 9 8 10 9 9
Wind_Direction
205 180 160 159 151 148 147 148 146 143 144 145 145 139 135 131 128 125 125 130 132 128 124 138 145 139 139 39 308 242 239 232 223 140 106 107 112 109 90 83 77 68 62
191 160 151 140 135 137 143 143 141 140 138 140 137 133 132 131 130 133 138 136 138 148 152 148 159 151 148 136 187 225 227 230 189 175 145 128 114 122 107 88 72 71 64
170 160 154 153 151 150 147 140 137 134 131 129 129 133 135 135 135 137 141 138 141 150 156 164 169 159 172 188 200 222 232 214 146 151 144 126 110 110 100 80 70 60 61
178 172 178 177 166 155 147 141 139 138 136 135 132 133 135 136 137 136 137 134 131 128 131 147 160 172 189 197 205 217 197 151 135 136 134 129 124 111 117 122 97 59 47
194 189 190 169 152 145 141 139 137 137 139 135 131 131 133 136 145 146 144 143 140 134 127 133 154 184 199 195 193 194 173 156 146 146 141 135 147 150 165 148 132 103 63
208 204 178 159 154 152 147 142 138 135 134 134 141 144 145 153 162 161 153 148 150 153 155 149 147 151 176 173 153 164 171 171 175 168 167 176 180 171 145 142 132 136 174
220 201 178 168 164 160 153 148 150 149 144 144 149 150 153 164 169 167 164 151 154 163 167 167 165 149 124 90 85 75 59 97 187 172 177 190 179 177 159 149 150 144 155
219 201 183 173 170 161 156 159 157 151 153 154 158 159 160 176 180 177 166 145 150 166 176 180 175 167 158 143 118 88 54 31 55 132 179 187 179 163 160 153 143 118 94
227 208 193 180 173 168 170 170 162 156 158 160 162 165 167 181 188 183 164 145 159 177 185 185 181 185 195 168 142 131 95 28 61 98 118 132 143 149 144 125 131 128 138
245 221 198 185 180 178 176 169 160 159 163 159 164 171 173 182 195 194 177 157 170 180 186 200 205 202 206 189 162 161 173 186 95 83 79 80 87 124 143 143 149 142 144
255 212 196 187 182 175 166 161 156 155 155 161 169 177 181 193 205 205 192 174 179 183 192 202 219 217 215 207 189 182 198 178 148 131 113 92 79 79 90 117 136 144 153
249 207 193 181 174 166 159 160 158 157 162 171 176 186 197 204 212 217 209 204 193 186 198 201 212 219 219 216 204 202 203 176 144 146 149 157 156 154 128 124 129 133 144
258 202 183 168 165 166 165 164 164 167 174 181 185 196 204 202 215 223 220 215 209 196 199 207 212 218 219 218 213 212 199 167 162 177 191 197 188 167 142 124 111 111 98
262 198 173 166 166 169 172 172 176 181 184 187 194 201 202 203 209 215 215 217 215 207 199 213 217 218 212 208 214 212 182 178 182 192 194 183 156 153 163 161 156 143 131
337 186 174 178 175 179 187 194 192 198 194 191 197 194 195 211 218 210 199 199 191 188 170 166 173 182 194 192 190 190 186 191 200 181 182 181 181 180 182 168 165 161 177
342 222 189 181 179 181 184 199 211 210 214 214 208 202 212 220 221 216 216 216 211 201 187 189 199 202 207 207 207 205 202 205 202 194 193 195 196 195 192 179 177 186 203
312 260 203 186 186 187 188 191 207 222 222 221 220 219 222 223 224 221 220 219 217 209 207 205 207 208 210 209 208 209 212 208 198 198 203 204 200 198 195 198 198 205 216
353 352 167 202 197 198 200 202 202 202 209 226 230 229 229 230 229 224 221 213 216 212 209 212 215 212 210 211 212 215 216 207 203 206 207 206 201 199 202 206 206 209 214
344 342 355 274 218 210 209 204 206 210 214 217 220 232 229 228 229 229 219 208 209 216 215 216 215 215 215 213 214 213 212 212 209 207 210 208 204 203 210 211 211 220 217
330 310 311 246 231 223 217 212 214 215 218 220 225 227 206 196 208 217 212 207 213 218 217 220 219 216 216 216 215 214 215 216 213 213 213 210 206 205 211 212 212 215 218
322 308 305 285 243 235 230 231 229 223 223 230 237 235 222 210 219 220 221 220 221 223 221 220 219 218 217 216 216 216 217 220 217 215 213 211 208 210 212 213 213 215 217
321 313 302 284 269 255 247 230 228 232 234 241 250 250 245 228 221 227 230 232 230 228 224 222 226 224 218 215 216 217 220 222 218 215 214 212 211 213 212 212 213 214 215
324 324 320 307 289 279 274 246 241 247 254 258 260 251 247 238 237 239 240 241 238 236 232 228 233 234 228 226 222 218 222 224 220 213 212 212 211 211 211 214 213 212 215
317 314 316 314 311 303 289 281 275 273 270 269 267 263 255 252 251 252 251 248 243 240 235 234 236 239 236 235 236 233 234 235 228 219 212 214 214 213 212 214 215 216 216
316 313 312 309 309 310 310 305 299 295 289 283 280 280 278 270 267 270 269 261 255 254 252 250 251 249 248 245 244 243 244 242 236 227 217 214 219 216 214 215 215 215 215
308 307 305 301 296 297 295 294 293 293 288 287 285 283 283 279 276 275 276 274 272 270 266 261 260 261 262 258 254 252 252 251 246 239 227 217 218 219 216 219 216 215 215
Height
1468 1470 1471 1473 1474 1476 1478 1481 1483 1485 1487 1490 1491 1493 1495 1496 1497 1498 1499 1499 1499 1500 1500 1500 1500 1500 1500 1500 1500 1500 1501 1501 1501 1502 1503 1504 1504 1505 1506 1506 1506 1507 1507
1465 1466 1468 1469 1471 1472 1474 1476 1479 1481 1483 1485 1487 1488 1490 1491 1492 1493 1494 1494 1495 1495 1495 1495 1495 1495 1495 1495 1496 1496 1496 1496 1497 1497 1498 1499 1500 1501 1502 1503 1503 1504 1504
1461 1462 1464 1466 1467 1468 1470 1472 1474 1476 1478 1480 1482 1483 1485 1486 1488 1488 1489 1490 1490 1490 1490 1490 1490 1490 1491 1491 1491 1491 1492 1492 1493 1493 1494 1495 1496 1498 1499 1500 1500 1501 1502
1458 1459 1460 1462 1463 1465 1466 1468 1470 1472 1474 1476 1478 1479 1481 1482 1483 1484 1485 1485 1485 1485 1486 1486 1486 1486 1487 1487 1487 1487 1488 1488 1489 1490 1490 1491 1493 1494 1495 1496 1497 1498 1499
1454 1455 1456 1458 1459 1461 1462 1464 1466 1468 1470 1472 1474 1475 1477 1478 1479 1480 1481 1481 1481 1481 1482 1482 1482 1482 1483 1483 1483 1483 1484 1485 1485 1486 1487 1488 1489 1490 1492 1493 1494 1495 1496
1450 1451 1452 1453 1455 1457 1459 1460 1462 1464 1466 1468 1470 1472 1473 1474 1475 1476 1476 1477 1477 1477 1478 1478 1478 1479 1479 1479 1480 1480 1481 1481 1482 1483 1484 1485 1486 1487 1489 1490 1491 1492 1493
1446 1447 1448 1450 1451 1453 1455 1457 1459 1461 1463 1464 1466 1468 1469 1470 1471 1472 1472 1473 1473 1474 1474 1474 1475 1475 1475 1476 1476 1477 1477 1478 1479 1480 1481 1482 1483 1484 1486 1487 1488 1489 1491
1443 1443 1444 1446 1447 1449 1451 1453 1455 1457 1459 1460 1462 1464 1465 1466 1467 1468 1468 1469 1469 1470 1471 1471 1471 1472 1472 1472 1473 1474 1474 1475 1476 1477 1478 1479 1481 1482 1483 1484 1485 1487 1488
1439 1439 1440 1442 1444 1445 1447 1449 1451 1453 1455 1457 1458 1460 1461 1462 1463 1464 1464 1465 1466 1467 1467 1467 1468 1468 1469 1469 1470 1471 1472 1473 1474 1474 1475 1476 1478 1479 1480 1482 1483 1484 1485
1435 1436 1437 1438 1440 1441 1443 1445 1447 1449 1451 1453 1454 1456 1457 1458 1459 1460 1460 1461 1462 1463 1464 1464 1465 1465 1466 1466 1467 1468 1469 1470 1471 1472 1473 1474 1475 1476 1478 1479 1480 1482 1483
1432 1432 1433 1434 1436 1438 1439 1441 1443 1445 1447 1449 1450 1452 1453 1454 1455 1456 1456 1457 1458 1459 1460 1461 1462 1462 1463 1464 1465 1466 1467 1468 1468 1469 1470 1472 1473 1474 1475 1476 1478 1479 1480
1428 1428 1429 1430 1432 1433 1435 1437 1439 1441 1443 1445 1446 1447 1449 1450 1451 1451 1452 1454 1454 1455 1457 1458 1459 1459 1460 1461 1462 1463 1464 1465 1466 1467 1468 1469 1470 1471 1472 1474 1475 1476 1477
1425 1425 1425 1426 1428 1429 1431 1433 1435 1436 1438 1440 1442 1443 1444 1446 1447 1447 1448 1449 1450 1452 1453 1454 1455 1456 1457 1458 1459 1460 1461 1462 1463 1464 1465 1466 1468 1468 1469 1471 1472 1473 1474
1422 1422 1422 1423 1424 1426 1427 1429 1431 1432 1434 1436 1437 1439 1440 1441 1442 1443 1444 1445 1446 1448 1449 1450 1451 1452 1453 1455 1456 1457 1458 1459 1460 1461 1462 1463 1464 1465 1466 1468 1469 1470 1471
1420 1420 1420 1421 1422 1423 1424 1426 1427 1429 1430 1432 1433 1434 1435 1437 1438 1439 1440 1441 1442 1444 1445 1446 1447 1448 1449 1451 1452 1453 1454 1455 1456 1457 1458 1459 1460 1462 1463 1464 1465 1466 1467
1418 1418 1418 1418 1419 1420 1421 1422 1423 1425 1426 1428 1429 1430 1431 1433 1434 1434 1436 1437 1438 1439 1440 1441 1442 1444 1445 1446 1448 1449 1450 1451 1452 1453 1454 1455 1456 1458 1459 1460 1461 1462 1463
1416 1416 1416 1416 1417 1417 1418 1419 1420 1421 1423 1424 1425 1426 1427 1428 1429 1430 1431 1432 1434 1435 1435 1436 1438 1439 1441 1442 1443 1444 1445 1447 1448 1448 1449 1450 1452 1453 1454 1455 1456 1457 1458
1415 1414 1414 1414 1414 1415 1415 1416 1417 1418 1419 1420 1421 1422 1423 1424 1425 1426 1427 1428 1429 1430 1430 1432 1433 1435 1436 1437 1438 1439 1440 1441 1442 1443 1444 1445 1446 1447 1448 1449 1451 1452 1453
1413 1413 1412 1412 1412 1412 1412 1413 1413 1414 1415 1416 1417 1418 1419 1420 1421 1422 1422 1423 1424 1425 1426 1427 1428 1429 1430 1431 1432 1433 1434 1435 1436 1437 1438 1439 1440 1442 1443 1444 1445 1446 1447
1411 1411 1410 1410 1409 1409 1409 1410 1410 1411 1411 1412 1413 1414 1415 1416 1416 1417 1417 1418 1419 1420 1421 1422 1423 1424 1425 1426 1426 1427 1428 1429 1430 1431 1432 1433 1434 1435 1436 1438 1439 1440 1441
1410 1409 1408 1408 1407 1407 1407 1407 1407 1407 1408 1408 1409 1410 1410 1411 1411 1412 1413 1413 1414 1414 1415 1416 1417 1418 1419 1419 1420 1421 1422 1423 1424 1425 1426 1427 1428 1429 1430 1431 1432 1433 1434
1408 1407 1406 1405 1405 1404 1404 1404 1404 1404 1404 1404 1405 1405 1406 1406 1406 1407 1407 1408 1409 1409 1410 1410 1411 1412 1412 1413 1414 1414 1415 1416 1417 1418 1419 1420 1421 1422 1423 1424 1425 1426 1427
1406 1405 1404 1403 1403 1402 1402 1401 1401 1401 1401 1401 1401 1401 1401 1401 1402 1402 1402 1403 1403 1403 1404 1404 1405 1405 1406 1406 1407 1407 1408 1409 1410 1411 1412 1413 1414 1415 1416 1417 1418 1419 1420
1404 1403 1402 1401 1400 1399 1399 1398 1398 1398 1397 1397 1397 1397 1397 1397 1397 1397 1397 1397 1398 1398 1398 1398 1398 1399 1399 1400 1400 1401 1401 1402 1403 1404 1405 1405 1406 1407 1408 1409 1410 1411 1412
1402 1400 1399 1398 1397 1397 1396 1396 1395 1395 1394 1394 1393 1393 1393 1393 1393 1393 1393 1392 1392 1392 1392 1392 1392 1392 1393 1393 1393 1394 1394 1395 1395 1396 1397 1398 1398 1399 1400 1401 1402 1404 1405
1399 1398 1397 1396 1395 1394 1393 1392 1392 1391 1391 1390 1390 1389 1389 1389 1388 1388 1388 1387 1387 1387 1387 1386 1386 1386 1386 1386 1386 1387 1387 1387 1388 1388 1389 1390 1390 1391 1392 1393 1394 1396 1397